Weather History for Chattanooga, TN

Change the Weather History Date:

Tuesday, May 29, 2012

  Actual Average Record
Temperature  
Mean Temperature 80 °F 72 °F  
Max Temperature 92 °F 83 °F 99 °F (1941)
Min Temperature 68 °F 61 °F 47 °F (1984)
Degree Days  
Heating Degree Days 0 0  
Month to date heating degree days 4 38  
Since 1 July heating degree days 2414 3238  
Cooling Degree Days 15 7  
Month to date cooling degree days 250 133  
Year to date cooling degree days 405 179  
Growing Degree Days 30 (Base 50)    
Moisture  
Dew Point 66 °F    
Average Humidity 64    
Maximum Humidity 90    
Minimum Humidity 38    
Precipitation  
Precipitation 0.50 in 0.13 in 1.82 in (1952)
Month to date precipitation 2.50 3.84  
Year to date precipitation 17.94 22.56  
Snow  
Snow 0.00 in 0.00 in - ()
Month to date snowfall 0.0 0.0  
Since 1 July snowfall T 3.9  
Snow Depth 0.00 in    
Sea Level Pressure  
Sea Level Pressure 29.87 in    
Wind  
Wind Speed 5 mph (SSE)    
Max Wind Speed 24 mph    
Max Gust Speed 31 mph    
Visibility 10 miles    
Events Rain , Thunderstorm    
T = Trace of Precipitation, MM = Missing Value Source: NWS Daily Summary

Daily Weather History Graph

Daily Weather History Graph

Search for Another Location

Airport:

Trip Planner

Search our weather history database for the weather conditions in past years. The results will help you decide how hot, cold, wet, or windy it might be!

Date:

Astronomy

May. 29, 2012 Rise Set
Actual Time 6:28 AM EDT 8:48 PM EDT
Civil Twilight 5:59 AM EDT 9:17 PM EDT
Nautical Twilight 5:24 AM EDT 9:52 PM EDT
Astronomical Twilight 4:45 AM EDT 10:31 PM EDT
Moon 2:31 PM EDT (5/29) 2:07 AM EDT (5/29)
Length of Visible Light 15h 17m
Length of Day
14h 19m
First Quarter, 59% of the Moon is Illuminated
May 29
First Quarter
Jun 4
Full
Jun 11
Last Quarter
Jun 19
New
Jun 26
First Quarter

Hourly Weather History & Observations

Time (EDT) Temp. Heat Index Dew Point Humidity Pressure Visibility Wind Dir Wind Speed Gust Speed Precip Events Conditions
12:53 AM 78.1 °F - 64.9 °F 64% 29.92 in 10.0 mi Calm Calm - N/A   Clear
1:53 AM 75.9 °F - 64.9 °F 69% 29.92 in 10.0 mi Calm Calm - N/A   Clear
2:53 AM 75.0 °F - 64.9 °F 71% 29.91 in 10.0 mi South 3.5 mph - N/A   Clear
3:53 AM 73.0 °F - 66.0 °F 79% 29.89 in 10.0 mi Calm Calm - N/A   Clear
4:53 AM 70.0 °F - 66.0 °F 87% 29.90 in 10.0 mi Calm Calm - N/A   Clear
5:53 AM 71.1 °F - 66.0 °F 84% 29.92 in 10.0 mi Calm Calm - N/A   Partly Cloudy
6:53 AM 70.0 °F - 66.0 °F 87% 29.94 in 10.0 mi Calm Calm - N/A   Partly Cloudy
7:53 AM 73.9 °F - 66.9 °F 79% 29.93 in 10.0 mi SE 3.5 mph - N/A   Scattered Clouds
8:53 AM 77.0 °F - 66.9 °F 71% 29.93 in 10.0 mi South 4.6 mph - N/A   Scattered Clouds
9:53 AM 78.1 °F - 66.9 °F 68% 29.94 in 10.0 mi WSW 4.6 mph - N/A   Scattered Clouds
10:53 AM 81.0 °F 83.3 °F 66.9 °F 62% 29.93 in 10.0 mi South 6.9 mph - N/A   Scattered Clouds
11:53 AM 82.9 °F 85.0 °F 66.0 °F 56% 29.91 in 10.0 mi SSW 3.5 mph - N/A   Scattered Clouds
12:53 PM 87.1 °F 89.2 °F 66.0 °F 49% 29.88 in 10.0 mi South 4.6 mph - N/A   Scattered Clouds
1:53 PM 88.0 °F 88.7 °F 63.0 °F 43% 29.86 in 10.0 mi Calm Calm - N/A   Mostly Cloudy
2:53 PM 91.0 °F 91.9 °F 63.0 °F 39% 29.83 in 10.0 mi Variable 5.8 mph - N/A   Mostly Cloudy
3:53 PM 90.0 °F 91.3 °F 64.0 °F 42% 29.81 in 10.0 mi SE 6.9 mph - N/A   Mostly Cloudy
4:39 PM 89.6 °F 90.1 °F 62.6 °F 40% 29.83 in 10.0 mi Calm Calm - N/A Thunderstorm Thunderstorm
4:53 PM 82.9 °F 85.4 °F 66.9 °F 58% 29.82 in 10.0 mi NNW 20.7 mph 27.6 mph N/A Thunderstorm Thunderstorm
5:53 PM 84.0 °F 86.5 °F 66.9 °F 56% 29.80 in 10.0 mi North 5.8 mph - 0.08 in   Mostly Cloudy
6:53 PM 82.0 °F 85.9 °F 70.0 °F 67% 29.80 in 10.0 mi NW 6.9 mph - N/A   Mostly Cloudy
7:53 PM 82.9 °F 87.5 °F 71.1 °F 67% 29.79 in 10.0 mi Calm Calm - N/A   Mostly Cloudy
8:41 PM 78.8 °F - 69.8 °F 74% 29.83 in 10.0 mi NE 8.1 mph - N/A Thunderstorm Thunderstorm
8:53 PM 78.1 °F - 69.1 °F 74% 29.81 in 10.0 mi NNE 9.2 mph - N/A Thunderstorm Thunderstorm
9:53 PM 73.0 °F - 70.0 °F 90% 29.87 in 4.0 mi North 12.7 mph 23.0 mph 0.13 in Rain , Thunderstorm Thunderstorms and Rain
10:53 PM 69.1 °F - 64.9 °F 87% 29.89 in 7.0 mi NE 5.8 mph - 0.23 in Rain , Thunderstorm Light Thunderstorms and Rain
11:23 PM 69.8 °F - 66.2 °F 88% 29.88 in 9.0 mi South 5.8 mph - 0.05 in Rain Light Rain
11:53 PM 69.1 °F - 66.0 °F 90% 29.84 in 10.0 mi South 3.5 mph - 0.06 in   Overcast